Flag Weather past 2 weeks in Arrecife, Canary Islands, Spain

Now
72 °F

Scattered clouds.


Feels Like: 74 °F
Forecast: 66 / 75 °F
Wind: 31 mph from West

Location: Lanzarote / Aeropuerto

Current Time: Nov 28, 2014 at 2:06:40 PM

Latest Report: Nov 28, 2014 at 1:30 PM


Visibility: N/A

Pressure: 29.42 "Hg

Humidity: 73%

Dew point: 63 °F

Location of ArrecifeLocation

Historic Weather in Arrecife — Graph

°F

Arrecife temperature yesterday

Maximum temperature yesterday: 72 °F (at 12:00 PM)
Minimum temperature yesterday: 63 °F (at 6:30 AM)
Average temperature yesterday: 67 °F

Past Weeks' High & Low Weather Summary

 TemperatureHumidityPressure
High81 °F (Nov 14, 3:30 PM)94% (Nov 19, 10:30 PM)30.21 "Hg (Nov 19, 10:30 PM)
Low57 °F (Nov 21, 6:00 AM)47% (Nov 27, 12:00 PM)29.42 "Hg (Nov 28, 1:00 PM)
Average69 °F75%29.92 "Hg
* Reported Nov 13 1:00 PM — Nov 28 1:00 PM, Arrecife, Weather by CustomWeather, © 2014

Note: Actual official high and low records may vary slightly from our data, if they occured in-between our weather recording intervals... More about our weather records

Advertising

Arrecife weather history for previous 24 hours

 ConditionsComfort  
Time TempWeatherWind HumidityBarometerVisibility
1:00 PM
Nov 28
70 °FPassing clouds.33 mph78%29.42 "HgN/A
12:30 PM70 °FLots of rain. Partly sunny.32 mph83%29.45 "Hg1 mi
12:00 PM72 °FScattered clouds.25 mph78%29.45 "HgN/A
11:30 AM70 °FBroken clouds.28 mph83%29.47 "HgN/A
11:00 AM68 °FSprinkles. Broken clouds.30 mph88%29.47 "Hg3 mi
10:51 AM70 °FLots of rain. Broken clouds.30 mph83%29.50 "Hg1 mi
10:30 AM68 °FBroken clouds.32 mph88%29.50 "Hg4 mi
10:00 AM66 °FLots of rain. Partly sunny.31 mph94%29.50 "Hg1 mi
9:30 AM68 °FLots of rain. Partly sunny.29 mph88%29.50 "Hg1 mi
9:00 AM68 °FRain showers. Partly sunny.25 mph88%29.50 "Hg2 mi
8:30 AM66 °FLots of rain. Partly sunny.32 mph94%29.50 "Hg5 mi
8:00 AM66 °FRain showers. Partly sunny.28 mph94%29.50 "Hg1 mi
7:30 AM66 °FRain showers. Partly sunny.25 mph94%29.50 "Hg2 mi
7:00 AM70 °FLight rain. Passing clouds.25 mph78%29.50 "HgN/A
6:30 AM70 °FSprinkles. Passing clouds.29 mph78%29.53 "HgN/A
6:00 AM68 °FRain showers. Passing clouds.28 mph78%29.53 "HgN/A
1:00 AM68 °FPassing clouds.23 mph73%29.65 "HgN/A
12:30 AM68 °FPassing clouds.24 mph78%29.65 "HgN/A
12:00 AM68 °FPassing clouds.23 mph78%29.65 "HgN/A
11:30 PM
Nov 27
68 °FPassing clouds.23 mph78%29.68 "HgN/A
11:00 PM68 °FLight rain. Passing clouds.20 mph78%29.71 "HgN/A
10:30 PM66 °FPassing clouds.22 mph83%29.71 "HgN/A
10:00 PM64 °FPassing clouds.21 mph88%29.74 "HgN/A
9:30 PM66 °FPassing clouds.21 mph83%29.74 "HgN/A
9:00 PM66 °FRain showers. Passing clouds.21 mph83%29.77 "HgN/A
8:30 PM66 °FPassing clouds.22 mph83%29.74 "HgN/A
8:00 PM66 °FPassing clouds.21 mph78%29.77 "HgN/A
7:30 PM64 °FRain. Passing clouds.16 mph88%29.74 "HgN/A
7:00 PM66 °FRain. Passing clouds.18 mph83%29.77 "HgN/A
6:30 PM66 °FPassing clouds.18 mph78%29.80 "HgN/A
6:00 PM66 °FPassing clouds.20 mph78%29.80 "HgN/A
5:30 PM66 °FScattered clouds.16 mph78%29.80 "HgN/A
5:00 PM66 °FScattered clouds.15 mph78%29.80 "HgN/A
4:30 PM68 °FHeavy rain. Scattered clouds.21 mph78%29.80 "Hg5 mi
4:00 PM70 °FPassing clouds.20 mph64%29.83 "HgN/A
3:30 PM68 °FPassing clouds.21 mph69%29.83 "HgN/A
3:00 PM72 °FPassing clouds.21 mph57%29.83 "HgN/A
2:30 PM72 °FPassing clouds.17 mph57%29.83 "HgN/A
2:00 PM70 °FPartly sunny.18 mph64%29.86 "HgN/A
Weather by CustomWeather, © 2014

See weather overviewHow to use our weather pages